sat.trackr.live / text

‹ back to catalog

STARLINK-30332

NORAD 57700 · 2023-129C

PAYLOAD ACTIVE UNKNOWN

§ Identity

Operator
Country
US
Launch date
2023-08-27
Launch site
AFETR
Launch vehicle
Mass (kg)
RCS (m²)

Purposes: comms

External: N2YO · Heavens-Above · Gunter

§ Orbital elements

Epoch: 2026-05-25T02:55:20.419104Z

Period
94.27 min
Inclination
43.0033°
Eccentricity
0.0001602
Mean motion
15.27589490 rev/d
Perigee alt
481.9 km
Apogee alt
484.1 km
Semi-major
6,861.2 km
B*
7.4549e-5
RAAN
53.7556°
Arg perigee
251.7436°
Mean anomaly
108.3242°
Rev number
15,214

§ Raw data

STARLINK-303321 57700U 23129C   26145.12176411  .00001790  00000+0  74549-4 0  99962 57700  43.0033  53.7556 0001602 251.7436 108.3242 15.27589490152145

JSON: /api/v1/satellites/57700 · /tle

For live sub-satellite position, see the globe view (requires WebGL).

§ Visibility from observer

Set your observer location to see the next 7 days of passes ≥ 10°. The values pass through the URL so the page stays shareable.

No JS? Fill the form by hand. The geolocation button needs JavaScript.